Weather History for Park Rapids, MN

Change the Weather History Date:

Wednesday, August 24, 2011

  Actual Average Record
Temperature  
Mean Temperature 68 °F -  
Max Temperature 79 °F 78 °F 96 °F (1976)
Min Temperature 55 °F 54 °F 37 °F (1977)
Cooling Degree Days 2    
Growing Degree Days 18 (Base 50)    
Moisture  
Dew Point 52 °F    
Average Humidity 58    
Maximum Humidity 84    
Minimum Humidity 36    
Precipitation  
Precipitation 0.00 in - - ()
Sea Level Pressure  
Sea Level Pressure 29.77 in    
Wind  
Wind Speed 14 mph (WNW)    
Max Wind Speed 29 mph    
Max Gust Speed 39 mph    
Visibility 10 miles    
Events      
Averages and records for this station are not official NWS values.
T = Trace of Precipitation, MM = Missing Value Source: NWS Daily Summary

Daily Weather History Graph

Daily Weather History Graph

Search for Another Location

Airport:

Trip Planner

Search our weather history database for the weather conditions in past years. The results will help you decide how hot, cold, wet, or windy it might be!

Date:

Astronomy

Aug. 24, 2011 Rise Set
Actual Time 6:29 AM CDT 8:15 PM CDT
Civil Twilight 5:56 AM CDT 8:47 PM CDT
Nautical Twilight 5:17 AM CDT 9:26 PM CDT
Astronomical Twilight 4:33 AM CDT 10:09 PM CDT
Moon 1:15 AM CDT (8/24) 5:17 PM CDT (8/24)
Length of Visible Light 14h 50m
Length of Day
13h 46m
Waning Crescent, 23% of the Moon is Illuminated
Aug 24
Waning Crescent
Aug 28
New
Sep 4
First Quarter
Sep 12
Full
Sep 20
Last Quarter

Hourly Weather History & Observations

Time (CDT) Temp. Dew Point Humidity Pressure Visibility Wind Dir Wind Speed Gust Speed Precip Events Conditions
12:53 AM 70.0 °F 63.0 °F 78% 29.60 in 10.0 mi West 8.1 mph - N/A   Clear
1:53 AM 71.1 °F 55.9 °F 59% 29.61 in 10.0 mi WNW 12.7 mph - N/A   Clear
2:53 AM 70.0 °F 55.0 °F 59% 29.63 in 10.0 mi NW 13.8 mph - N/A   Clear
3:53 AM 66.9 °F 54.0 °F 63% 29.66 in 10.0 mi NW 10.4 mph - N/A   Clear
4:53 AM 61.0 °F 53.1 °F 75% 29.67 in 10.0 mi West 6.9 mph - N/A   Clear
5:53 AM 59.0 °F 52.0 °F 78% 29.68 in 10.0 mi WNW 6.9 mph - N/A   Clear
6:53 AM 60.1 °F 54.0 °F 80% 29.70 in 10.0 mi West 8.1 mph - N/A   Clear
7:53 AM 64.0 °F 53.1 °F 67% 29.72 in 10.0 mi WNW 15.0 mph - N/A   Clear
8:53 AM 66.9 °F 50.0 °F 54% 29.72 in 10.0 mi WNW 20.7 mph 25.3 mph N/A   Clear
9:53 AM 69.1 °F 48.0 °F 47% 29.74 in 10.0 mi WNW 24.2 mph 34.5 mph N/A   Clear
10:53 AM 72.0 °F 50.0 °F 46% 29.75 in 10.0 mi WNW 19.6 mph 31.1 mph N/A   Clear
11:53 AM 73.9 °F 48.9 °F 41% 29.78 in 10.0 mi WNW 23.0 mph 33.4 mph N/A   Clear
12:53 PM 75.0 °F 48.9 °F 40% 29.78 in 10.0 mi NW 28.8 mph 36.8 mph N/A   Clear
1:53 PM 77.0 °F 48.9 °F 37% 29.78 in 10.0 mi NW 24.2 mph 39.1 mph N/A   Partly Cloudy
2:53 PM 78.1 °F 50.0 °F 37% 29.79 in 10.0 mi NW 24.2 mph 32.2 mph N/A   Partly Cloudy
3:53 PM 78.1 °F 48.9 °F 36% 29.81 in 10.0 mi NW 21.9 mph 34.5 mph N/A   Clear
4:53 PM 78.1 °F 50.0 °F 37% 29.83 in 10.0 mi NW 18.4 mph 27.6 mph N/A   Partly Cloudy
5:53 PM 77.0 °F 51.1 °F 40% 29.86 in 10.0 mi NNW 18.4 mph 25.3 mph N/A   Scattered Clouds
6:53 PM 75.0 °F 51.1 °F 43% 29.87 in 10.0 mi NW 19.6 mph 28.8 mph N/A   Clear
7:53 PM 71.1 °F 52.0 °F 51% 29.88 in 10.0 mi WNW 9.2 mph - N/A   Clear
8:53 PM 62.6 °F 53.6 °F 72% 29.91 in 10.0 mi WNW 6.9 mph - N/A   Clear
9:53 PM 59.0 °F 52.0 °F 78% 29.92 in 10.0 mi WNW 6.9 mph - N/A   Clear
10:53 PM 57.2 °F 51.8 °F 82% 29.93 in 10.0 mi WNW 5.8 mph - N/A   Clear
11:53 PM 55.9 °F 51.1 °F 84% 29.94 in 10.0 mi WNW 4.6 mph - N/A   Clear